Home > Weather > Paris > Past weeks

Flag for France Weather for the Past 2 Weeks in Paris, France

Now
37 °F

Fog.


Feels Like: 31 °F
Forecast: 38 / 47 °F
Wind: 9 mph from Southeast

Location: Villacoublay

Current Time: Feb 13, 2016 at 6:49:09 AM

Latest Report: Feb 13, 2016 at 6:30 AM


Visibility: 2 mi

Pressure: 29.24 "Hg

Humidity: 100%

Dew point: 37 °F

Location of ParisLocation

Historic Weather in Paris — Graph

°F

Paris Temperature Yesterday

Maximum temperature yesterday: 39 °F (at 12:00 AM)
Minimum temperature yesterday: 34 °F (at 7:00 AM)
Average temperature yesterday: 37 °F

High & Low Weather Summary for the Past Weeks

 TemperatureHumidityPressure
High55 °F (Jan 31, 3:30 PM)100% (Jan 30, 12:30 PM)30.45 "Hg (Jan 30, 12:30 PM)
Low34 °F (Feb 12, 7:00 AM)51% (Feb 6, 5:00 PM)29.03 "Hg (Feb 9, 12:30 PM)
Average45 °F86%29.89 "Hg
* Reported Jan 29 5:00 AM — Feb 13 5:30 AM, Paris, Weather by CustomWeather, © 2016

Note: Actual official high and low records may vary slightly from our data, if they occured in-between our weather recording intervals... More about our weather records

Advertising

Paris Weather History for the Previous 24 Hours

 ConditionsComfort  
Time TempWeatherWind HumidityBarometerVisibility
5:30 AM
Sat, Feb 13
37 °FFog.6 mph100%29.27 "Hg2 mi
5:00 AM37 °FFog.8 mph100%29.27 "Hg2 mi
4:30 AM37 °FFog.8 mph100%29.30 "Hg2 mi
4:00 AM37 °FFog.8 mph100%29.30 "Hg3 mi
3:30 AM37 °FFog.5 mph100%29.33 "Hg3 mi
3:00 AM37 °FFog.3 mph100%29.33 "Hg3 mi
2:30 AM37 °FMostly cloudy.3 mph100%29.36 "Hg4 mi
1:30 AM37 °FMostly cloudy.2 mph93%29.36 "HgN/A
1:00 AM37 °FPassing clouds.2 mph93%29.36 "Hg6 mi
12:30 AM37 °FMostly cloudy.2 mph93%29.36 "HgN/A
12:00 AM37 °FMostly cloudy.2 mph100%29.36 "HgN/A
11:00 PM
Fri, Feb 12
39 °FOvercast.No wind93%29.36 "HgN/A
10:30 PM39 °FOvercast.2 mph93%29.36 "HgN/A
10:00 PM39 °FOvercast.1 mph93%29.36 "HgN/A
9:30 PM39 °FMostly cloudy.2 mph93%29.33 "HgN/A
9:00 PM39 °FLow clouds.1 mph87%29.33 "HgN/A
8:30 PM39 °FMostly cloudy.6 mph87%29.33 "HgN/A
8:00 PM39 °FMostly cloudy.7 mph93%29.33 "HgN/A
7:30 PM39 °FMostly cloudy.6 mph93%29.30 "HgN/A
7:00 PM39 °FMostly cloudy.5 mph93%29.30 "HgN/A
6:30 PM39 °FMostly cloudy.6 mph93%29.30 "HgN/A
6:00 PM39 °FMostly cloudy.2 mph87%29.27 "HgN/A
5:30 PM39 °FMostly cloudy.7 mph87%29.27 "HgN/A
5:00 PM39 °FMostly cloudy.5 mph87%29.27 "HgN/A
4:30 PM39 °FLow clouds.6 mph87%29.24 "HgN/A
4:00 PM37 °FMostly cloudy.8 mph93%29.24 "HgN/A
3:30 PM37 °FDrizzle. Mostly cloudy.9 mph93%29.24 "HgN/A
3:00 PM37 °FLight rain. Mostly cloudy.8 mph93%29.24 "HgN/A
2:30 PM37 °FLight rain. Mostly cloudy.9 mph93%29.24 "HgN/A
2:00 PM37 °FLight rain. Mostly cloudy.10 mph93%29.24 "HgN/A
1:30 PM37 °FLight rain. Low clouds.10 mph93%29.24 "HgN/A
1:00 PM37 °FLight rain. Low clouds.9 mph100%29.24 "HgN/A
12:30 PM37 °FLight rain. Low clouds.9 mph93%29.27 "Hg6 mi
12:00 PM37 °FLight rain. Low clouds.10 mph100%29.27 "Hg5 mi
11:30 AM37 °FLight rain. Low clouds.9 mph100%29.30 "Hg4 mi
11:00 AM37 °FDrizzle. Low clouds.10 mph93%29.30 "Hg5 mi
10:30 AM37 °FLow clouds.10 mph93%29.33 "HgN/A
10:00 AM37 °FLow clouds.10 mph93%29.36 "Hg6 mi
9:30 AM36 °FDrizzle. Low clouds.9 mph100%29.36 "HgN/A
9:00 AM36 °FLow clouds.10 mph100%29.39 "Hg5 mi
8:30 AM36 °FLight rain. Low clouds.10 mph93%29.42 "Hg4 mi
8:00 AM36 °FLow clouds.12 mph93%29.42 "Hg4 mi
7:30 AM36 °FFog.9 mph93%29.45 "Hg3 mi
7:00 AM34 °FFog.8 mph100%29.45 "Hg2 mi
6:30 AM36 °FFog.9 mph93%29.47 "Hg3 mi
6:00 AM36 °FLow clouds.9 mph93%29.50 "Hg4 mi
Weather by CustomWeather, © 2016

See weather overviewHow to use our weather pages